Location: Melbourne
(37.8666°S, 145.1333°E)
Time: 05:51:42
(UTC+10:00)

Daily predictions for brighter satellites

Satellite Brightness Start Highest point End
(mag) Time Altitude Azimuth Time Altitude Azimuth Time Altitude Azimuth
USA 184 4.3 03:26:46 64° SSE 03:27:44 67° ESE 04:01:47 10° NE
CZ-3 R/B 3.8 04:14:47 48° WNW 04:21:15 60° NNW 04:30:08 10° ENE
BREEZE-M DEB (TANK) 4.4 04:23:28 71° SSW 04:24:21 78° SE 04:56:50 10° NE
Milstar 3 Cent rocket 4.4 04:35:34 41° NW 04:40:07 57° NNE 05:02:04 10° E
Cosmos 1809 Rocket 4.5 04:50:42 45° S 04:52:42 76° E 04:58:48 10° NNE
Lacrosse 5 rocket 3.7 04:51:12 17° NNE 04:53:28 25° ENE 04:57:11 10° ESE
Cosmos 2239 Rocket 4.3 04:54:07 72° S 04:54:50 89° ESE 05:01:01 10° N
CZ-4 R/B 3.1 04:51:34 10° NE 04:55:13 32° ESE 04:56:05 29° SE
Cosmos 1821 Rocket 3.9 04:54:04 56° S 04:55:29 84° E 05:01:37 10° N
Lacrosse 5 2.4 04:57:26 55° SE 04:57:26 55° SE 05:01:27 10° SE
Thor Agena Rocket 4.4 04:54:05 10° SSE 05:05:32 - NNW 04:57:24 40° SSE
Cosmos 1975 Rocket 4.3 04:57:36 10° NNE 05:01:45 41° E 05:05:56 10° SSE
SL-8 R/B 4.3 05:03:47 51° SE 05:03:47 51° SE 05:07:29 10° SE
CSL-04 Debris 4.1 05:00:26 10° N 05:05:28 74° NNW 05:05:28 74° NNW
SPOT 3 Rocket 4.1 05:00:48 10° NNE 05:05:55 58° ESE 05:09:08 23° S
CSL-04 Rocket 4.3 05:00:48 10° N 05:04:35 44° NNW 05:04:35 44° NNW
IRS-1A Rocket 4.1 05:02:38 10° NNE 05:08:10 80° WNW 05:08:42 72° SW
NOSS 3-4 (A) 3.8 05:09:18 51° WNW 05:09:18 51° WNW 05:15:25 10° N
Meteor 2-6 Rocket 4.2 05:03:14 10° N 05:09:05 82° W 05:15:09 10° S
NOSS 3-4 (C) 3.8 05:09:21 52° WNW 05:09:21 52° WNW 05:15:31 10° N
Cosmos 2360 Rocket 2.3 05:12:28 58° SSW 05:12:28 58° SSW 05:17:25 10° SSE
Cosmos 292 Rocket 3.7 05:11:35 66° N 05:12:14 81° ENE 05:17:04 10° SSE
Cosmos 1934 Rocket 3.9 05:08:01 21° S 05:12:25 85° W 05:18:46 10° N
ATLAS CENTAUR R/B 4.1 05:11:16 10° NNE 05:13:33 16° ENE 05:15:48 10° ESE
Meteor 1-27 Rocket 3.8 05:08:23 10° N 05:14:14 79° E 05:20:02 10° SSE
Cosmos 1535 Rocket 4.4 05:16:53 55° WSW 05:17:30 58° W 05:23:33 10° N
MOS 1 4.4 05:13:15 10° NNE 05:18:53 74° ESE 05:24:12 12° S
Meteor 2-14 Rocket 4.4 05:12:39 10° S 05:18:55 87° E 05:25:05 10° N
Meteor 2-21 4.3 05:17:49 39° SSW 05:20:05 65° W 05:26:08 10° N
Cosmos 1371 Rocket 4.2 05:25:18 50° NW 05:25:18 50° NW 05:29:52 10° N
Cosmos 2263 Rocket 2.6 05:28:55 42° WNW 05:28:55 42° WNW 05:33:44 10° N
Cosmos 2056 Rocket 3.5 05:27:51 49° SW 05:29:08 67° WNW 05:34:30 10° N
Meteor 2-16 Rocket 4.3 05:26:51 10° S 05:33:01 77° W 05:39:06 10° N
Cosmos 2322 4.0 05:35:40 42° WSW 05:35:40 42° WSW 05:41:06 10° S
Cosmos 1844 Rocket 3.6 05:33:39 10° S 05:39:03 48° ESE 05:44:29 10° NE
YAOGAN 1 2.7 05:35:44 10° NNE 05:40:05 76° ESE 05:44:01 13° S
ATLAS 5 CENTAUR R/B 4.4 05:39:40 10° S 05:43:04 24° ESE 05:51:19 10° ENE
SMAP 3.3 05:41:14 10° NNE 05:45:53 71° ESE 05:50:36 10° S
AQUARIUS 4.3 05:43:00 10° NNE 05:47:31 76° ESE 05:52:06 10° S
Atlas Centaur 2 4.2 05:42:45 10° NNW 05:47:32 22° NNE 05:51:35 10° ENE
MOS 1 Rocket 4.1 05:45:34 10° NNW 05:50:34 38° W 05:52:44 27° SW
COBE Rocket 3.8 05:48:41 10° N 05:53:15 56° W 05:57:05 15° SSW
Molniya-2 4.4 05:51:42 22° S 05:53:21 49° ESE 06:00:48 10° NE
Cosmos 1727 Rocket 3.9 05:47:30 10° NNW 05:53:41 62° W 05:59:54 10° S
Cosmos 1339 Rocket 4.3 05:51:04 10° NNW 05:57:10 73° W 06:03:19 10° S
Cosmos 2333 Rocket 3.1 05:53:24 10° N 05:58:59 53° ENE 06:04:37 10° SSE
Cosmos 1844 4.4 05:54:48 10° SSW 06:00:19 53° ESE 06:05:45 10° NE
Cosmos 1544 Rocket 3.6 05:57:04 10° S 06:01:31 86° E 06:05:58 10° N
Radarsat 4.5 05:57:57 10° N 06:03:11 79° WNW 06:08:29 10° SSW
SJ-7 4.5 05:59:32 10° NNE 06:03:37 83° ESE 06:07:49 10° S
CZ-2C R/B 2.8 05:59:09 10° NNE 06:03:51 65° ESE 06:08:48 10° S
Gbstr 26 Del rocket 3.5 06:03:55 20° SW 06:07:13 58° SE 06:11:23 10° ENE
Cosmos 2061 Rocket 4.2 06:01:15 10° S 06:07:35 74° E 06:13:47 10° NNE
Cosmos 1269 Rocket 4.1 06:02:41 10° NNW 06:08:01 86° ENE 06:13:24 10° SSE
Intercosmos 25 Rocket 3.4 06:04:01 10° S 06:08:52 85° E 06:12:16 10° N
COSMOS 2428 3.0 06:04:01 10° NW 06:09:29 45° WSW 06:15:01 10° S
SL-19 R/B 4.5 06:07:15 10° NNW 06:09:52 30° W 06:09:53 30° W
Cosmos 1315 Rocket 4.1 06:06:52 10° S 06:10:45 42° ESE 06:14:37 10° NNE
SL-24 R/B 4.5 06:08:42 10° NNW 06:12:03 32° W 06:14:02 20° SW
Cosmos 1602 4.4 06:10:17 21° SW 06:12:14 34° W 06:15:51 10° NNW
Cosmos 192 4.3 06:09:04 10° NNW 06:13:57 60° WSW 06:18:54 10° S
RESURS DK-1 2.9 06:15:08 20° SW 06:17:33 39° WNW 06:21:27 10° N
NOSS 2-2 (E) 4.2 06:11:07 10° SSW 06:17:37 85° SE 06:22:33 10° NNE
Cosmos 1400 Rocket 2.8 06:13:53 10° S 06:18:06 87° W 06:22:13 10° N
Cosmos 1356 3.6 06:14:42 10° S 06:18:20 77° E 06:21:53 10° NNE
CORIOLIS 4.2 06:13:02 10° N 06:18:26 64° WNW 06:23:53 10° SSW
Cosmos 1802 Rocket 4.3 06:12:49 10° S 06:19:21 79° E 06:25:47 10° N
Cosmos 2237 Rocket 2.5 06:14:40 10° NNW 06:20:20 73° ENE 06:26:04 10° SSE
Cosmos 1242 Rocket 4.1 06:17:54 10° NNE 06:21:12 39° E 06:24:33 10° SSE
ISS -0.3 06:25:04 10° N 06:27:29 19° NE 06:29:57 10° E
PAYLOAD A 4.2 06:23:47 10° N 06:28:16 44° W 06:32:56 10° SSW
Okean 1 4.3 06:24:55 10° N 06:28:48 50° E 06:32:45 10° SSE
CZ-4 R/B 2.9 06:27:27 10° NW 06:30:19 18° W 06:32:10 14° WSW
Cosmos 1536 3.7 06:27:00 10° SSW 06:30:31 28° W 06:34:00 10° NNW
Cosmos 2278 Rocket 2.6 06:25:54 10° SSW 06:31:36 66° ESE 06:37:13 10° NNE
Cosmos 2219 Rocket 2.2 06:26:20 10° NW 06:31:52 59° WSW 06:37:31 10° SSE
Cosmos 1633 3.3 06:28:44 10° SSW 06:32:08 32° W 06:35:28 10° NNW
Lacrosse 5 rocket 1.9 06:28:14 10° WNW 06:32:37 42° SW 06:36:52 10° SSE
Helios 1A 4.1 06:30:18 10° NE 06:34:19 46° ESE 06:38:22 10° S
Cosmos 1459 Rocket 4.0 06:32:05 10° SSW 06:38:10 62° W 06:44:16 10° N
Cosmos 1452 Rocket 4.2 06:33:21 10° SW 06:38:10 35° W 06:42:56 10° NNW
Abrixas rocket 2.5 06:35:57 13° SW 06:38:57 65° SSE 06:42:19 10° ENE
Lacrosse 5 3.3 06:36:41 12° WSW 06:39:50 20° SSW 06:43:39 10° SSE
SL-24 R/B - RUBIN 2 4.0 06:38:10 10° NNW 06:43:46 85° WSW 06:48:42 10° SSE
PSLV R/B 3.2 06:43:25 10° WNW 06:46:45 88° NNE 06:50:03 10° ESE
Cosmos 1812 2.7 06:43:28 10° N 06:47:23 80° W 06:51:23 10° S
COSMO-SKYMED 1 2.7 06:45:29 10° S 06:49:48 54° WSW 06:54:04 10° NNW
Cosmos 1536 Rocket 4.2 06:46:39 10° NW 06:50:42 36° WSW 06:54:50 10° S
SL-16 R/B 3.0 06:46:15 10° N 06:51:49 58° ENE 06:57:27 10° SSE
ATLAS CENTAUR R/B 1.8 06:49:08 10° WNW 06:52:19 29° SW 06:55:29 10° S
Meteor 1-12 Rocket 4.4 06:49:04 10° SSW 06:54:58 70° W 07:00:54 10° N
Cosmos 1725 Rocket 4.2 06:49:19 10° S 06:55:40 84° E 07:01:59 10° N
SJ-6B 2.9 06:51:52 10° N 06:55:58 75° WNW 07:00:03 10° SSW
Okean 1-7 Rocket 3.7 06:51:30 10° N 06:56:06 81° W 07:00:46 10° S
IDEFIX/ARIANE 42P 2.9 06:52:21 10° N 06:57:23 47° W 07:02:28 10° SSW
Spot 2 Rocket 3.8 06:56:34 10° NNE 07:01:42 77° ESE 07:06:54 10° S
Cosmos 2016 Rocket 4.2 06:56:24 10° SSW 07:02:30 56° W 07:08:37 10° NNW
